• In Belarus
  • List of Countries
  • For 7 days
  • Water Temperature
  • Weather Map
  • Weather Widgets
  • user-avatar
    Login

    Hourly Weather Ulegej

    Today, 23 August, Friday

    Time Temperature Precipitation Wind Pressure Humidity
    00:00 +13°C° 0 mm 3 mps 616 mmHg 63%
    01:00 +12°C° 0 mm 3 mps 615 mmHg 63%
    02:00 +12°C° 0 mm 3 mps 615 mmHg 64%
    03:00 +12°C° 0 mm 3 mps 615 mmHg 64%
    04:00 +12°C° 0 mm 3 mps 615 mmHg 64%
    05:00 +12°C° 0 mm 4 mps 615 mmHg 63%
    06:00 +12°C° 0 mm 4 mps 615 mmHg 63%
    07:00 +13°C° 0 mm 6 mps 615 mmHg 57%
    08:00 +15°C° 0 mm 8 mps 616 mmHg 51%
    09:00 +16°C° 0 mm 10 mps 616 mmHg 45%
    10:00 +16°C° 0 mm 10 mps 616 mmHg 46%
    11:00 +16°C° 0 mm 10 mps 616 mmHg 47%
    12:00 +16°C° 0 mm 10 mps 616 mmHg 48%
    13:00 +17°C° 0 mm 11 mps 616 mmHg 45%
    14:00 +17°C° 0 mm 12 mps 616 mmHg 42%
    15:00 +17°C° 0 mm 13 mps 616 mmHg 39%
    16:00 +17°C° 0 mm 12 mps 616 mmHg 37%
    17:00 +16°C° 0 mm 11 mps 616 mmHg 35%
    18:00 +14°C° 0 mm 11 mps 616 mmHg 33%
    19:00 +12°C° 0 mm 8 mps 616 mmHg 40%
    20:00 +12°C° 0 mm 5 mps 616 mmHg 48%
    21:00 +10°C° 0 mm 2 mps 617 mmHg 55%
    22:00 +10°C° 0 mm 2 mps 617 mmHg 60%
    23:00 +9°C° 0 mm 2 mps 617 mmHg 64%

    Tomorrow, 24 August, Saturday

    Time Temperature Precipitation Wind Pressure Humidity
    00:00 +9°C° 0 mm 1 mps 617 mmHg 68%
    01:00 +9°C° 0 mm 1 mps 616 mmHg 69%
    02:00 +8°C° 0 mm 1 mps 616 mmHg 71%
    03:00 +8°C° 0 mm 1 mps 616 mmHg 72%
    04:00 +8°C° 0 mm 1 mps 616 mmHg 71%
    05:00 +8°C° 0 mm 1 mps 617 mmHg 71%
    06:00 +8°C° 0 mm 1 mps 617 mmHg 71%
    07:00 +8°C° 0 mm 2 mps 617 mmHg 64%
    08:00 +10°C° 0 mm 2 mps 618 mmHg 57%
    09:00 +12°C° 0 mm 2 mps 618 mmHg 51%
    10:00 +12°C° 0 mm 3 mps 618 mmHg 45%
    11:00 +14°C° 0 mm 3 mps 619 mmHg 38%
    12:00 +16°C° 0 mm 3 mps 619 mmHg 32%
    13:00 +16°C° 0 mm 3 mps 619 mmHg 30%
    14:00 +17°C° 0 mm 3 mps 619 mmHg 29%
    15:00 +17°C° 0 mm 3 mps 619 mmHg 27%
    16:00 +17°C° 0 mm 3 mps 620 mmHg 29%
    17:00 +17°C° 0 mm 3 mps 620 mmHg 30%
    18:00 +17°C° 0 mm 2 mps 620 mmHg 32%
    19:00 +16°C° 0 mm 2 mps 620 mmHg 37%
    20:00 +15°C° 0 mm 2 mps 620 mmHg 41%
    21:00 +14°C° 0 mm 1 mps 621 mmHg 46%
    22:00 +13°C° 0 mm 1 mps 621 mmHg 50%
    23:00 +13°C° 0 mm 1 mps 621 mmHg 54%

    Day after tomorrow, 25 August, Sunday

    Time Temperature Precipitation Wind Pressure Humidity
    00:00 +12°C° 0 mm 1 mps 621 mmHg 58%
    01:00 +11°C° 0 mm 1 mps 620 mmHg 60%
    02:00 +10°C° 0 mm 0 mps 620 mmHg 62%
    03:00 +9°C° 0 mm 0 mps 619 mmHg 65%
    04:00 +9°C° 0 mm 0 mps 619 mmHg 65%
    05:00 +9°C° 0 mm 0 mps 620 mmHg 65%
    06:00 +9°C° 0 mm 0 mps 620 mmHg 66%
    07:00 +10°C° 0 mm 0 mps 620 mmHg 60%
    08:00 +12°C° 0 mm 0 mps 621 mmHg 54%
    09:00 +14°C° 0 mm 1 mps 621 mmHg 48%
    10:00 +15°C° 0 mm 1 mps 621 mmHg 43%
    11:00 +16°C° 0 mm 1 mps 621 mmHg 39%
    12:00 +18°C° 0 mm 1 mps 622 mmHg 34%
    13:00 +18°C° 0 mm 2 mps 621 mmHg 31%
    14:00 +19°C° 0 mm 2 mps 621 mmHg 29%
    15:00 +19°C° 0 mm 2 mps 621 mmHg 26%
    16:00 +19°C° 0 mm 2 mps 621 mmHg 27%
    17:00 +20°C° 0 mm 1 mps 622 mmHg 28%
    18:00 +20°C° 0 mm 1 mps 622 mmHg 28%
    19:00 +19°C° 0 mm 1 mps 622 mmHg 33%
    20:00 +16°C° 0 mm 1 mps 621 mmHg 38%
    21:00 +15°C° 0 mm 1 mps 621 mmHg 43%
    22:00 +14°C° 0 mm 1 mps 621 mmHg 46%
    23:00 +14°C° 0 mm 1 mps 621 mmHg 48%

    26 August, Monday

    Time Temperature Precipitation Wind Pressure Humidity
    00:00 +13°C° 0 mm 1 mps 621 mmHg 50%
    01:00 +13°C° 0 mm 1 mps 621 mmHg 52%
    02:00 +12°C° 0 mm 1 mps 620 mmHg 54%
    03:00 +10°C° 0 mm 0 mps 620 mmHg 56%
    04:00 +12°C° 0 mm 1 mps 620 mmHg 57%
    05:00 +12°C° 0 mm 1 mps 620 mmHg 58%
    06:00 +12°C° 0 mm 1 mps 621 mmHg 59%
    07:00 +13°C° 0 mm 1 mps 621 mmHg 53%
    08:00 +15°C° 0 mm 1 mps 621 mmHg 47%
    09:00 +16°C° 0 mm 1 mps 622 mmHg 41%
    10:00 +18°C° 0 mm 1 mps 622 mmHg 38%
    11:00 +20°C° 0 mm 1 mps 622 mmHg 35%
    12:00 +21°C° 0 mm 1 mps 622 mmHg 32%
    13:00 +20°C° 0 mm 2 mps 622 mmHg 31%
    14:00 +21°C° 0 mm 2 mps 622 mmHg 29%
    15:00 +23°C° 0 mm 2 mps 622 mmHg 28%
    16:00 +21°C° 0 mm 3 mps 622 mmHg 29%
    17:00 +21°C° 0 mm 3 mps 622 mmHg 31%
    18:00 +20°C° 0 mm 3 mps 622 mmHg 33%
    19:00 +19°C° 0 mm 3 mps 622 mmHg 38%
    20:00 +18°C° 0 mm 2 mps 621 mmHg 42%
    21:00 +16°C° 0 mm 1 mps 621 mmHg 47%
    22:00 +16°C° 0 mm 1 mps 621 mmHg 48%
    23:00 +15°C° 0 mm 1 mps 621 mmHg 49%

    27 August, Tuesday

    Time Temperature Precipitation Wind Pressure Humidity
    00:00 +15°C° 0 mm 1 mps 620 mmHg 50%
    01:00 +14°C° 0 mm 1 mps 620 mmHg 51%
    02:00 +13°C° 0 mm 1 mps 619 mmHg 52%
    03:00 +13°C° 0 mm 1 mps 619 mmHg 53%
    04:00 +13°C° 0 mm 1 mps 619 mmHg 54%
    05:00 +13°C° 0 mm 1 mps 619 mmHg 54%
    06:00 +13°C° 0 mm 1 mps 619 mmHg 55%
    07:00 +15°C° 0 mm 1 mps 620 mmHg 47%
    08:00 +16°C° 0 mm 1 mps 620 mmHg 40%
    09:00 +19°C° 0 mm 1 mps 621 mmHg 32%
    10:00 +20°C° 0 mm 2 mps 621 mmHg 27%
    11:00 +21°C° 0 mm 3 mps 621 mmHg 21%
    12:00 +23°C° 0 mm 4 mps 622 mmHg 16%
    13:00 +23°C° 0 mm 4 mps 621 mmHg 15%
    14:00 +25°C° 0 mm 4 mps 621 mmHg 14%
    15:00 +25°C° 0 mm 4 mps 621 mmHg 14%
    16:00 +25°C° 0 mm 4 mps 621 mmHg 16%
    17:00 +23°C° 0 mm 4 mps 621 mmHg 18%
    18:00 +22°C° 0 mm 4 mps 621 mmHg 21%
    19:00 +21°C° 0 mm 3 mps 620 mmHg 23%
    20:00 +19°C° 0 mm 3 mps 620 mmHg 25%
    21:00 +18°C° 0 mm 2 mps 619 mmHg 27%
    22:00 +17°C° 0 mm 2 mps 619 mmHg 28%
    23:00 +16°C° 0 mm 2 mps 619 mmHg 28%

    28 August, Wednesday

    Time Temperature Precipitation Wind Pressure Humidity
    00:00 +16°C° 0 mm 2 mps 619 mmHg 29%
    01:00 +15°C° 0 mm 2 mps 619 mmHg 29%
    02:00 +15°C° 0 mm 2 mps 619 mmHg 30%
    03:00 +14°C° 0 mm 2 mps 618 mmHg 30%
    04:00 +14°C° 0 mm 2 mps 618 mmHg 30%
    05:00 +14°C° 0 mm 2 mps 619 mmHg 31%
    06:00 +14°C° 0 mm 2 mps 619 mmHg 31%
    07:00 +16°C° 0 mm 3 mps 619 mmHg 28%
    08:00 +19°C° 0 mm 3 mps 620 mmHg 25%
    09:00 +21°C° 0 mm 4 mps 621 mmHg 22%
    10:00 +22°C° 0 mm 5 mps 621 mmHg 22%
    11:00 +24°C° 0 mm 6 mps 621 mmHg 22%
    12:00 +26°C° 0 mm 8 mps 621 mmHg 21%
    13:00 +26°C° 0 mm 9 mps 621 mmHg 21%
    14:00 +26°C° 0 mm 10 mps 621 mmHg 21%
    15:00 +26°C° 0 mm 11 mps 621 mmHg 21%
    16:00 +24°C° 0 mm 10 mps 621 mmHg 23%
    17:00 +23°C° 0 mm 9 mps 621 mmHg 24%
    18:00 +22°C° 0 mm 7 mps 621 mmHg 26%
    19:00 +21°C° 0 mm 7 mps 621 mmHg 29%
    20:00 +20°C° 0 mm 6 mps 621 mmHg 31%
    21:00 +19°C° 0 mm 5 mps 621 mmHg 34%
    22:00 +18°C° 0 mm 4 mps 620 mmHg 36%
    23:00 +17°C° 0 mm 3 mps 620 mmHg 39%
    Show more